Regional Weather Roundup
Issued by NWS

Home | Current Version | Previous Version | Text Only | Print | Product List | Glossary On
Versions: 1 2 3 4 5 6 7 8 9 10 11 12 13 14 15 16 17 18 19 20 21 22 23 24 25 26 27 28 29 30 31 32 33 34 35 36 37 38 39 40 41 42 43 44 45 46 47 48 49 50
000
ASUS43 KTOP 230959
RWRKS

WEATHER ROUNDUP FOR KANSAS
NATIONAL WEATHER SERVICE GOODLAND KS
500 AM CDT SAT MAY 23 2015

NOTE:  "FAIR" INDICATES FEW OR NO CLOUDS BELOW 12,000 FEET WITH NO
SIGNIFICANT WEATHER AND/OR OBSTRUCTIONS TO VISIBILITY.

KSZ001>006-013>018-027>032-041>047-231100-
NORTHWEST KANSAS

CITY           SKY/WX    TMP DP  RH WIND       PRES   REMARKS
GOODLAND       CLOUDY    53  53 100 SE13      30.05R FOG
HAYS           CLOUDY    54  46  76 SE14      30.09S
HILL CITY      CLOUDY    54  52  93 S13       30.07R
RUSSELL        CLOUDY    54  53  97 S16       30.09F
$$

KSZ061>065-074>080-084>089-231100-
SOUTHWEST KANSAS

CITY           SKY/WX    TMP DP  RH WIND       PRES   REMARKS
DODGE CITY     CLOUDY    53  51  93 SE14      30.10R FOG
ELKHART          N/A     57  54  90 SE10        N/A
GARDEN CITY    CLOUDY    52  52 100 SE17      30.05F FOG
GREAT BEND     CLOUDY    54  50  87 SE8       30.11S
LIBERAL        CLOUDY    57  54  88 SE10G17   30.05F VSB 1
$$

KSZ066>073-081>083-090>101-231100-
SOUTHEAST KANSAS

CITY           SKY/WX    TMP DP  RH WIND       PRES   REMARKS
CHANUTE        CLOUDY    58  55  90 SE7       30.20R
COFFEYVILLE    LGT RAIN  57  56  96 SE6       30.19S FOG
HUTCHINSON     CLOUDY    56  53  90 SE9       30.15R
NEWTON         CLOUDY    54  50  87 SE8       30.17S
PARSONS        LGT RAIN  57  57 100 SE3       30.21R FOG
WICHITA INTL   CLOUDY    56  55  97 SE9       30.15R FOG
WICHITA JABRA  CLOUDY    55  54  96 SE7       30.15S
WICHITA MCCONL CLOUDY    55  55 100 E8        30.15R
WINFIELD       CLOUDY    56  56 100 SE7       30.16S FOG
$$

KSZ007>012-019>026-033>040-048>060-102>105-231100-
NORTHEAST KANSAS

CITY           SKY/WX    TMP DP  RH WIND       PRES   REMARKS
CONCORDIA      CLOUDY    54  52  93 SE5       30.14F
EMPORIA        CLOUDY    55  54  96 SE8       30.17F FOG
LAWRENCE       LGT RAIN  59  52  77 SE6       30.20S
MANHATTAN      CLOUDY    57  54  89 SE3       30.16F
OLATHE IND     CLOUDY    59  51  75 SE7       30.21R
OLATHE EXE     CLOUDY    59  51  75 S8        30.20R
SALINA         CLOUDY    56  53  90 SE8       30.14F
TOPEKA BILLARD LGT RAIN  59  53  80 S6        30.19S
TOPEKA FORBES  CLOUDY    59  53  80 SE6       30.19S
$$


USA.gov is the U.S. government's official web portal to all federal, state and local government web resources and services.